Location: Fredericksburg
(30.2750°N, 98.8720°W)
Time: 07:18:24
(UTC-05:00)

ISS - All Passes

Search period start: 21 April 2014 00:00
Search period end: 01 May 2014 00:00
Orbit: 414 x 419 km, 51.6° (Epoch: 21 April)

Date Brightness Start Highest point End Pass type
(mag) Time Alt. Az. Time Alt. Az. Time Alt. Az.
21 Apr - 14:42:30 10° SW 14:45:49 79° NW 14:49:09 10° NE daylight
21 Apr - 22:52:21 10° NW 22:55:43 87° SW 22:59:03 10° SE visible
22 Apr - 13:54:06 10° SSW 13:57:18 47° SE 14:00:30 10° NE daylight
22 Apr - 15:32:23 10° WNW 15:34:12 14° NW 15:36:01 10° N daylight
22 Apr - 22:03:53 10° NNW 22:07:06 44° NE 22:10:19 10° ESE visible
22 Apr - 23:42:32 10° WSW 23:43:29 11° SW 23:44:26 10° SW night (unlit)
23 Apr - 13:06:07 10° S 13:08:46 22° SE 13:11:26 10° ENE daylight
23 Apr - 14:42:41 10° W 14:45:24 23° NW 14:48:08 10° NNE daylight
23 Apr - 21:15:36 10° NNW 21:18:22 24° NE 21:21:08 10° E visible
23 Apr - 22:52:21 10° WNW 22:54:59 22° SW 22:57:37 10° S visible
24 Apr - 12:19:08 10° SE 12:20:14 11° SE 12:21:20 10° ESE daylight
24 Apr - 13:53:27 10° WSW 13:56:37 42° NW 13:59:48 10° NNE daylight
24 Apr - 20:27:36 10° N 20:29:30 14° NE 20:31:23 10° ENE visible
24 Apr - 22:03:10 10° WNW 22:06:22 45° SW 22:09:34 10° SSE visible
25 Apr - 13:04:32 10° SW 13:07:50 90° NNW 13:11:10 10° NE daylight
25 Apr - 21:14:18 10° NW 21:17:38 82° NE 21:20:57 10° SE visible
26 Apr - 12:15:57 10° SSW 12:19:04 40° SE 12:22:13 10° ENE daylight
26 Apr - 13:53:53 10° WNW 13:55:54 15° NW 13:57:56 10° N daylight
26 Apr - 20:25:37 10° NNW 20:28:46 38° NE 20:31:54 10° ESE daylight
26 Apr - 22:03:40 10° W 22:05:10 13° SW 22:06:40 10° SSW visible
27 Apr - 11:27:50 10° S 11:30:18 20° SE 11:32:47 10° ENE daylight
27 Apr - 13:04:02 10° W 13:06:52 25° NW 13:09:42 10° NNE daylight
27 Apr - 19:37:08 10° NNW 19:39:45 21° NE 19:42:23 10° E daylight
27 Apr - 21:13:37 10° WNW 21:16:24 25° SW 21:19:11 10° S visible
28 Apr - 12:14:37 10° WSW 12:17:50 49° NW 12:21:04 10° NNE daylight
28 Apr - 18:49:01 10° N 18:50:36 13° NE 18:52:12 10° ENE daylight
28 Apr - 20:24:16 10° NW 20:27:32 53° SW 20:30:46 10° SSE daylight
29 Apr - 11:25:32 10° SW 11:28:49 77° SE 11:32:08 10° NE daylight
29 Apr - 13:05:24 10° NW 13:05:52 10° NNW 13:06:21 10° NNW daylight
29 Apr - 19:35:12 10° NW 19:38:31 69° NE 19:41:49 10° SE daylight
30 Apr - 10:36:47 10° SSW 10:39:49 34° SE 10:42:51 10° ENE daylight
30 Apr - 12:14:19 10° W 12:16:34 17° NW 12:18:49 10° N daylight
30 Apr - 18:46:20 10° NNW 18:49:23 33° NE 18:52:25 10° ESE daylight
30 Apr - 20:23:54 10° W 20:25:49 15° SW 20:27:44 10° SSW daylight
